Date,TemperatureHighF,TemperatureAvgF,TemperatureLowF,DewpointHighF,DewpointAvgF,DewpointLowF,HumidityHigh,HumidityAvg,HumidityLow,PressureMaxIn,PressureMinIn,WindSpeedMaxMPH,WindSpeedAvgMPH,GustSpeedMaxMPH,PrecipitationSumIn
2013-1-1,38,34,25,29,22,12,72,61,53,30.02,29.84,11,3,0,0.03
2013-1-2,29,28,22,19,17,13,74,64,60,30.16,30.01,7,1,0,0.00
2013-1-3,29,23,8,19,13,1,74,65,57,30.23,30.09,4,0,0,0.00
2013-1-4,38,33,26,26,24,20,82,69,59,30.07,29.93,4,1,0,0.01
2013-1-5,41,34,26,26,24,22,88,67,53,30.29,30.12,11,1,0,0.01
2013-1-6,44,39,32,32,30,27,86,71,60,30.12,29.98,3,0,0,0.00
2013-1-7,41,36,26,31,25,21,92,67,53,30.41,30.23,5,1,0,0.00
2013-1-8,46,36,20,32,28,18,93,74,58,30.44,30.34,7,0,0,0.00
2013-1-9,45,36,23,37,32,22,94,84,71,30.41,30.15,4,0,0,0.00
2013-1-10,46,40,31,28,25,24,80,56,43,30.56,30.43,10,3,0,0.00
2013-1-11,39,36,30,37,33,27,100,88,73,30.49,30.17,0,0,0,0.30
2013-1-12,45,43,40,44,42,39,98,97,96,30.19,30.14,0,0,0,0.36
2013-1-13,47,44,41,46,44,41,98,97,96,30.17,30.03,2,0,0,0.01
2013-1-14,55,47,36,53,42,31,99,83,67,30.31,30.04,7,2,0,0.03
2013-1-15,37,35,32,28,27,26,80,72,67,30.36,30.26,7,1,0,0.03
2013-1-16,33,32,30,32,31,29,96,96,95,30.11,29.81,5,0,0,0.03
2013-1-17,41,37,30,31,28,21,95,73,62,30.12,29.97,9,2,0,0.22
2013-1-18,27,24,20,13,9,6,70,55,43,30.49,30.38,11,2,0,0.22
2013-1-19,44,39,31,31,28,23,73,65,54,30.28,29.96,5,2,0,0.09
2013-1-20,51,43,30,33,23,13,64,47,33,30.02,29.67,13,4,0,0.00
2013-1-21,30,28,23,22,17,13,86,65,53,30.10,29.86,5,0,0,0.00
2013-1-22,20,18,14,4,0,-6,52,45,37,30.17,30.00,11,5,0,0.00
2013-1-23,17,14,9,1,-2,-4,67,50,42,30.26,30.17,11,2,0,0.00
2013-1-24,21,16,6,2,0,-2,79,50,39,30.37,30.22,13,5,0,0.00
2013-1-25,24,20,10,17,8,3,88,62,44,30.42,30.10,3,0,0,0.00
2013-1-26,25,20,12,10,8,6,86,60,48,30.34,30.14,9,4,0,0.00
2013-1-27,32,26,8,14,10,5,90,53,35,30.53,30.47,7,2,0,0.00
2013-1-28,33,29,20,32,27,16,96,90,77,30.44,30.02,4,0,0,0.01
2013-1-29,39,36,33,38,35,32,97,95,91,30.17,30.08,1,0,0,0.03
2013-1-30,54,51,36,53,50,35,98,96,94,30.12,29.46,5,1,0,0.10
2013-1-31,44,38,30,31,20,14,63,50,41,29.72,29.36,16,4,0,0.00
2013-2-1,30,27,23,17,10,4,67,49,37,30.19,29.82,11,4,0,0.00
2013-2-2,29,24,18,19,12,7,88,61,40,30.30,30.10,5,1,0,0.00
2013-2-3,31,25,17,19,17,15,92,73,57,30.00,29.81,5,0,0,0.01
2013-2-4,30,26,22,12,11,9,65,52,44,29.98,29.90,11,2,0,0.00
2013-2-5,29,27,24,25,23,21,90,85,77,30.01,29.93,4,0,0,0.00
2013-2-6,37,32,25,27,20,7,95,63,42,30.35,30.00,9,3,0,0.01
2013-2-7,32,27,21,15,11,8,69,50,40,30.54,30.43,4,0,0,0.00
2013-2-8,31,30,26,30,28,24,96,93,88,30.16,29.66,11,4,0,0.00
2013-2-9,29,26,21,24,13,5,94,62,39,30.33,29.84,17,7,0,0.00
2013-2-10,36,26,10,13,5,1,69,43,25,30.50,30.38,6,1,0,0.00
2013-2-11,41,37,31,40,36,30,97,96,94,30.10,29.69,2,0,0,0.11
2013-2-12,42,40,37,30,28,25,72,63,59,29.97,29.83,11,2,0,0.00
2013-2-13,42,36,26,31,26,23,94,68,51,29.93,29.71,4,0,0,0.00
2013-2-14,43,36,27,31,28,26,96,75,58,30.01,29.85,6,1,0,0.02
2013-2-15,52,46,38,36,34,32,86,66,46,30.02,29.92,5,1,0,0.00
2013-2-16,36,33,30,29,22,17,90,66,58,29.98,29.83,10,3,0,0.02
2013-2-17,29,24,16,7,4,2,55,43,34,29.94,29.65,16,8,0,0.00
2013-2-18,33,28,18,13,9,5,58,46,37,30.23,30.18,7,3,0,0.00
2013-2-19,44,39,23,40,34,19,96,84,60,30.09,29.69,6,1,0,0.26
2013-2-20,31,28,24,22,15,11,77,57,48,29.94,29.77,14,5,0,0.00
2013-2-21,32,28,25,16,15,13,67,57,51,30.29,29.99,11,5,0,0.00
2013-2-22,38,32,23,28,23,18,81,70,56,30.44,30.32,5,1,0,0.00
2013-2-23,39,36,34,38,35,31,96,93,87,30.20,29.85,5,0,0,0.04
2013-2-24,42,38,32,37,33,28,97,82,68,29.95,29.76,9,3,0,0.01
2013-2-25,43,38,27,29,28,23,88,66,54,30.26,30.09,9,2,0,0.00
2013-2-26,41,35,27,32,28,24,92,78,60,30.33,29.99,7,1,0,0.11
2013-2-27,45,40,34,43,39,32,100,94,92,29.98,29.51,9,2,0,0.80
2013-2-28,47,41,33,41,35,32,98,80,62,29.63,29.55,2,0,0,0.01
2013-3-1,43,39,30,34,30,28,97,72,56,29.78,29.67,9,3,0,0.01
2013-3-2,38,36,32,27,26,25,76,68,62,29.76,29.70,7,3,0,0.00
2013-3-3,37,33,30,27,23,19,78,67,53,29.76,29.67,10,4,0,0.00
2013-3-4,39,34,28,23,22,21,75,60,52,29.90,29.75,12,4,0,0.00
2013-3-5,45,41,31,28,27,24,76,60,51,30.05,29.99,8,3,0,0.00
2013-3-6,42,40,37,36,32,29,86,75,67,29.99,29.92,16,6,0,0.00
2013-3-7,36,34,32,32,31,29,95,88,80,30.10,30.03,12,6,0,0.00
2013-3-8,40,36,30,31,29,27,96,79,61,30.21,30.03,12,6,0,0.12
2013-3-9,51,43,32,27,24,20,72,49,32,30.32,30.24,9,3,0,0.00
2013-3-10,50,40,25,36,32,23,94,75,54,30.41,30.31,4,0,0,0.00
2013-3-11,53,47,36,46,41,33,91,80,66,30.34,30.12,7,1,0,0.00
2013-3-12,55,51,44,54,49,40,96,93,80,29.98,29.68,8,2,0,1.07
2013-3-13,50,44,35,35,30,25,95,59,41,29.88,29.79,7,2,0,0.00
2013-3-14,36,32,27,17,12,7,61,46,32,29.94,29.85,14,6,0,0.00
2013-3-15,40,38,31,32,25,16,74,61,43,29.94,29.73,6,1,0,0.00
2013-3-16,37,32,30,29,24,18,90,73,52,29.90,29.80,4,0,0,0.02
2013-3-17,37,32,27,22,16,11,74,51,37,30.33,30.02,9,3,0,0.00
2013-3-18,35,30,22,28,16,9,93,60,41,30.44,30.12,9,1,0,0.00
2013-3-19,38,35,32,35,33,29,96,91,75,29.81,29.70,6,1,0,0.03
2013-3-20,42,37,30,23,21,19,69,53,41,29.88,29.79,13,2,0,0.00
2013-3-21,38,34,30,22,18,14,71,54,39,29.80,29.64,10,3,0,0.00
2013-3-22,39,36,28,25,22,20,73,58,49,29.87,29.76,8,2,0,0.00
2013-3-23,43,40,34,25,22,20,65,51,41,29.90,29.80,16,5,0,0.00
2013-3-24,44,39,28,26,24,21,75,56,47,29.96,29.73,9,2,0,0.00
2013-3-25,44,39,35,29,27,25,78,63,51,29.74,29.46,10,2,0,0.00
2013-3-26,48,44,36,33,29,26,70,55,46,29.86,29.73,11,2,0,0.00
2013-3-27,51,43,25,31,27,23,91,57,39,29.96,29.86,10,2,0,0.00
2013-3-28,47,44,36,34,32,29,76,64,59,30.10,29.99,9,4,0,0.00
2013-3-29,53,46,32,32,30,28,88,56,40,30.14,30.05,8,2,0,0.00
2013-3-30,58,48,30,35,26,22,91,48,28,30.17,30.07,7,1,0,0.00
2013-3-31,55,47,29,42,34,25,92,64,39,30.12,29.73,11,2,0,0.00
2013-4-1,62,49,38,47,36,15,96,65,38,29.87,29.60,10,4,0,0.05
2013-4-2,42,38,33,16,13,11,48,37,33,30.03,29.95,13,5,0,0.00
2013-4-3,44,39,32,17,15,13,51,37,30,30.27,30.10,13,6,0,0.00
2013-4-4,54,45,30,32,24,20,73,45,28,30.39,30.11,6,1,0,0.00
2013-4-5,60,53,41,30,24,19,66,34,24,29.96,29.71,13,5,0,0.00
2013-4-6,51,44,34,24,11,7,50,27,17,30.32,30.25,13,3,0,0.00
2013-4-7,54,49,39,43,36,27,84,62,47,30.29,30.00,14,3,0,0.00
2013-4-8,73,62,40,45,42,39,97,52,30,30.09,30.00,4,1,0,0.00
2013-4-9,76,69,48,55,45,40,96,46,29,29.99,29.93,10,2,0,0.03
2013-4-10,70,61,51,56,53,49,95,76,59,29.96,29.82,6,1,0,0.24
2013-4-11,60,54,48,48,46,43,88,75,63,30.07,29.96,8,2,0,0.00
2013-4-12,45,41,39,40,36,28,94,85,53,30.01,29.75,10,2,0,0.39
2013-4-13,55,50,38,41,37,34,94,62,51,29.97,29.84,11,1,0,0.04
2013-4-14,52,50,45,31,29,28,53,45,40,30.22,30.06,12,4,0,0.00
2013-4-15,58,50,36,36,33,30,85,54,40,30.40,30.30,6,1,0,0.00
2013-4-16,64,58,47,53,51,43,90,76,62,30.37,30.12,7,2,0,0.01
2013-4-17,66,60,52,40,37,35,65,43,33,30.30,30.21,12,3,0,0.01
2013-4-18,60,54,42,49,42,38,92,67,45,30.37,30.13,7,2,0,0.00
2013-4-19,73,67,62,63,61,59,93,82,70,29.95,29.65,12,3,0,0.02
2013-4-20,58,53,45,45,34,27,95,51,33,30.21,29.87,9,3,0,0.19
2013-4-21,51,45,34,29,23,20,65,44,33,30.63,30.48,9,3,0,0.00
2013-4-22,55,48,34,36,31,25,89,55,36,30.70,30.54,9,2,0,0.00
2013-4-23,50,46,40,42,39,35,87,78,71,30.40,30.15,5,2,0,0.00
2013-4-24,72,61,44,52,48,41,89,64,47,30.07,29.83,5,1,0,0.00
2013-4-25,64,55,46,34,29,23,63,39,22,30.27,30.08,8,2,0,0.00
2013-4-26,64,59,47,38,34,30,70,40,29,30.41,30.35,7,2,0,0.00
2013-4-27,68,59,38,35,30,24,80,38,20,30.44,30.27,7,1,0,0.00
2013-4-28,71,59,39,46,39,31,87,50,34,30.33,30.21,8,1,0,0.00
2013-4-29,58,56,54,48,45,39,78,67,55,30.25,30.21,2,0,0,0.00
2013-4-30,68,62,51,46,35,29,76,38,25,30.35,30.28,6,1,0,0.00
2013-5-1,70,64,49,45,40,31,70,43,26,30.50,30.42,6,1,0,0.00
2013-5-2,77,65,41,48,43,38,96,50,30,30.47,30.31,5,0,0,0.00
2013-5-3,70,58,49,46,40,36,78,53,33,30.47,30.34,5,0,0,0.00
2013-5-4,73,64,49,47,45,43,78,53,36,30.33,30.22,7,1,0,0.00
2013-5-5,68,57,42,45,42,38,91,60,40,30.31,30.21,2,0,0,0.00
2013-5-6,72,64,50,54,51,45,84,64,51,30.28,30.15,4,0,0,0.00
2013-5-7,77,70,58,58,56,52,85,62,46,30.18,30.09,3,0,0,0.00
2013-5-8,64,61,57,62,60,55,97,94,90,30.11,29.99,6,0,0,0.32
2013-5-9,63,59,54,61,58,53,98,95,86,29.98,29.89,1,0,0,0.31
2013-5-10,80,73,60,62,58,55,98,61,44,30.00,29.91,2,0,0,0.00
2013-5-11,67,63,60,64,62,60,97,95,88,29.82,29.72,1,0,0,0.30
2013-5-12,69,62,52,56,42,30,97,51,28,29.89,29.66,7,1,0,0.03
2013-5-13,55,35,40,36,-8,-100,85,36,38,30.10,29.98,6,-303,0,0.00
2013-5-14,60,55,46,35,30,27,62,39,30,30.13,30.02,7,1,0,0.00
2013-5-15,65,60,48,55,51,44,85,72,59,30.03,29.69,3,0,0,0.01
2013-5-16,84,71,47,57,48,43,98,51,26,29.83,29.71,4,0,0,0.00
2013-5-17,70,64,54,47,44,41,75,50,38,30.20,30.07,8,1,0,0.00
2013-5-18,72,61,45,54,50,44,95,70,44,30.32,30.28,0,0,0,0.00
2013-5-19,58,57,55,57,56,53,97,96,94,30.34,30.21,1,0,0,0.16
2013-5-20,80,72,59,70,66,59,98,82,68,30.12,29.96,1,0,0,0.00
2013-5-21,90,80,62,73,70,62,98,73,54,29.97,29.82,0,0,0,0.00
2013-5-22,80,70,60,71,65,57,93,85,71,29.94,29.83,1,0,0,0.00
2013-5-23,74,68,65,72,67,64,98,96,90,29.90,29.80,1,0,0,2.49
2013-5-24,63,54,45,63,52,43,99,95,86,29.94,29.71,8,2,0,0.15
2013-5-25,50,47,44,45,43,41,96,86,76,29.98,29.89,11,4,0,0.50
2013-5-26,62,58,50,44,41,38,71,54,45,30.18,29.98,12,3,0,0.00
2013-5-27,75,68,47,47,43,39,85,43,29,30.24,30.11,2,0,0,0.00
2013-5-28,70,59,46,58,54,44,97,85,52,30.23,30.16,0,0,0,0.22
2013-5-29,82,72,58,72,67,58,98,85,71,30.11,29.99,0,0,0,0.00
2013-5-30,94,82,62,74,70,62,98,69,45,30.12,30.04,0,0,0,0.00
2013-5-31,94,84,64,75,70,64,98,65,45,30.13,29.98,0,0,0,0.00
2013-6-1,92,81,62,73,70,61,98,70,50,30.01,29.89,0,0,0,0.00
2013-6-2,88,80,68,74,71,66,94,73,59,29.87,29.75,1,0,0,0.00
2013-6-3,80,73,65,69,64,55,98,74,62,29.87,29.80,1,0,0,0.78
2013-6-4,74,68,59,50,47,43,71,47,34,30.09,29.98,1,0,0,0.00
2013-6-5,76,67,49,54,51,46,91,58,41,30.22,30.12,1,0,0,0.00
2013-6-6,72,63,51,59,56,50,97,79,59,30.16,30.05,2,0,0,0.10
2013-6-7,61,60,57,60,59,56,98,97,96,29.94,29.75,2,0,0,1.52
2013-6-8,77,68,55,67,62,54,98,80,66,30.03,29.72,1,0,0,0.89
2013-6-9,81,72,56,62,60,56,98,66,48,30.18,30.11,0,0,0,0.00
2013-6-10,64,62,60,63,60,59,97,96,95,30.02,29.91,3,0,0,0.37
2013-6-11,80,73,68,71,67,60,99,83,69,29.73,29.61,2,0,0,0.48
2013-6-12,72,67,58,58,55,53,89,66,54,29.86,29.73,5,1,0,0.00
2013-6-13,59,57,54,58,56,52,97,96,93,29.83,29.55,4,0,0,0.93
2013-6-14,74,65,54,61,58,53,96,79,56,29.87,29.75,4,0,0,1.06
2013-6-15,80,71,51,62,55,50,98,62,40,30.01,29.92,1,0,0,0.00
2013-6-16,78,74,65,66,63,60,85,69,56,29.94,29.76,1,0,0,0.00
2013-6-17,85,78,68,71,67,60,91,69,55,29.91,29.82,2,0,0,0.20
2013-6-18,84,73,64,72,67,63,97,83,64,29.91,29.82,1,0,0,0.11
2013-6-19,74,67,57,58,54,46,95,65,39,30.17,29.96,5,0,0,0.00
2013-6-20,81,74,64,61,59,56,77,60,42,30.27,30.22,0,0,0,0.00
2013-6-21,84,76,62,67,62,57,88,63,53,30.30,30.22,0,0,0,0.00
2013-6-22,85,78,68,66,64,59,73,62,49,30.27,30.13,0,0,0,0.00
2013-6-23,91,82,68,73,70,65,88,70,49,30.19,30.05,2,0,0,0.00
2013-6-24,94,84,67,76,72,65,96,68,50,30.05,29.92,7,0,0,0.33
2013-6-25,91,84,71,77,74,70,98,72,58,29.95,29.79,0,0,0,0.00
2013-6-26,80,77,72,73,72,69,96,83,71,29.84,29.80,1,0,0,0.07
2013-6-27,84,76,69,75,73,69,98,88,70,29.81,29.61,2,0,0,0.12
2013-6-28,86,77,71,75,72,70,97,85,66,29.53,29.46,2,0,0,0.45
2013-6-29,87,78,70,71,70,68,95,77,56,29.71,29.57,2,0,0,0.00
2013-6-30,82,75,67,76,72,67,98,90,80,29.90,29.71,0,0,0,0.00
2013-7-1,74,73,70,73,72,69,97,96,93,30.05,29.95,0,0,0,0.35
2013-7-2,82,77,73,76,74,72,98,92,82,30.17,30.09,0,0,0,0.06
2013-7-3,87,81,73,77,75,72,95,83,71,30.25,30.17,1,0,0,0.01
2013-7-4,91,84,74,78,76,73,97,78,62,30.25,30.14,1,0,0,0.00
2013-7-5,93,87,78,78,76,74,89,71,58,30.20,30.07,0,0,0,0.00
2013-7-6,92,84,73,78,76,72,96,76,60,30.13,30.01,0,0,0,0.00
2013-7-7,96,87,73,80,77,72,97,74,54,30.04,29.91,0,0,0,0.00
2013-7-8,90,86,77,74,72,68,81,65,55,30.04,29.95,1,0,0,0.00
2013-7-9,90,83,74,76,74,71,90,75,58,30.07,29.99,1,0,0,0.00
2013-7-10,88,83,78,78,76,73,86,79,71,29.93,29.79,0,0,0,0.00
2013-7-11,85,78,72,74,71,67,97,80,66,29.92,29.84,1,0,0,0.05
2013-7-12,79,74,65,71,67,63,93,79,68,30.13,30.00,5,0,0,0.03
2013-7-13,79,73,65,75,71,64,97,92,86,30.30,30.20,1,0,0,0.04
2013-7-14,92,86,78,77,76,74,90,72,59,30.32,30.22,1,0,0,0.00
2013-7-15,92,87,79,78,76,74,89,70,61,30.23,30.13,0,0,0,0.00
2013-7-16,90,84,71,74,71,68,92,66,50,30.21,30.13,5,1,0,0.00
2013-7-17,96,90,80,77,74,72,81,61,49,30.17,30.05,2,0,0,0.00
2013-7-18,96,91,81,79,77,73,87,65,49,30.05,29.95,1,0,0,0.00
2013-7-19,98,92,78,80,78,76,95,64,51,29.94,29.77,0,0,0,0.00
2013-7-20,95,86,77,78,76,72,89,73,53,29.82,29.71,4,0,0,0.06
2013-7-21,87,81,70,70,68,63,89,66,45,29.97,29.92,1,0,0,0.00
2013-7-22,84,76,67,76,73,66,96,88,71,29.97,29.83,2,0,0,0.04
2013-7-23,89,77,72,78,74,71,98,89,65,29.68,29.55,4,0,0,0.83
2013-7-24,80,76,67,71,67,56,93,74,66,29.93,29.69,4,1,0,0.00
2013-7-25,66,64,60,60,58,53,85,79,73,30.08,30.04,2,0,0,0.00
2013-7-26,79,74,66,67,64,61,86,74,64,30.05,30.00,3,0,0,0.03
2013-7-27,84,75,60,68,65,59,98,74,53,30.06,29.97,1,0,0,0.00
2013-7-28,79,70,63,70,66,62,97,88,73,30.00,29.94,1,0,0,0.14
2013-7-29,86,79,67,71,65,58,98,65,49,30.08,30.00,1,0,0,0.00
2013-7-30,78,71,58,63,60,57,97,71,53,30.17,30.10,0,0,0,0.00
2013-7-31,83,70,58,68,61,57,98,76,43,30.18,30.05,0,0,0,0.00
2013-8-1,76,68,66,68,66,65,97,92,71,29.98,29.86,1,0,0,0.54
2013-8-2,83,76,66,70,65,63,98,71,53,29.91,29.85,1,0,0,0.00
2013-8-3,76,69,64,70,66,62,98,91,77,29.91,29.84,0,0,0,0.21
2013-8-4,78,70,61,64,61,58,98,74,52,29.96,29.85,0,0,0,0.03
2013-8-5,76,67,53,60,54,48,97,65,45,30.06,30.00,5,0,0,0.00
2013-8-6,81,71,53,62,59,52,96,69,47,30.14,30.05,0,0,0,0.00
2013-8-7,76,71,59,67,65,58,97,80,68,30.17,30.08,2,0,0,0.00
2013-8-8,81,74,68,75,71,68,97,93,81,30.07,30.01,0,0,0,0.13
2013-8-9,82,76,71,78,74,71,98,96,87,29.92,29.79,1,0,0,0.67
2013-8-10,82,74,63,68,64,59,98,72,50,30.05,29.94,4,0,0,0.01
2013-8-11,79,74,58,64,60,56,95,64,47,30.14,30.03,0,0,0,0.00
2013-8-12,83,74,63,66,63,61,97,71,50,30.04,29.93,1,0,0,0.00
2013-8-13,76,71,64,70,68,62,98,90,77,29.91,29.70,0,0,0,0.24
2013-8-14,72,66,57,57,54,51,89,66,54,30.04,29.81,5,1,0,0.00
2013-8-15,77,67,51,59,54,50,97,67,45,30.15,30.07,0,0,0,0.00
2013-8-16,80,74,63,62,58,55,85,59,46,30.21,30.15,0,0,0,0.00
2013-8-17,82,75,61,66,62,58,95,68,45,30.29,30.24,0,0,0,0.00
2013-8-18,78,69,60,67,64,59,96,83,62,30.27,30.14,0,0,0,0.00
2013-8-19,80,72,61,68,65,59,97,81,58,30.13,30.03,0,0,0,0.01
2013-8-20,85,78,62,69,65,61,98,67,46,30.13,30.08,2,0,0,0.00
2013-8-21,89,80,62,70,66,61,98,67,45,30.19,30.07,0,0,0,0.00
2013-8-22,75,72,69,73,71,69,98,95,89,30.03,29.88,0,0,0,0.15
2013-8-23,77,73,65,65,60,56,88,64,48,30.09,29.97,6,1,0,0.00
2013-8-24,78,69,55,60,56,52,92,65,43,30.36,30.25,2,0,0,0.00
2013-8-25,84,70,53,63,58,52,97,67,40,30.41,30.23,0,0,0,0.00
2013-8-26,78,73,67,70,67,61,94,80,65,30.14,29.95,0,0,0,0.07
2013-8-27,81,76,68,71,70,68,98,82,67,29.90,29.85,6,1,0,0.37
2013-8-28,91,74,65,74,70,64,98,87,55,29.91,29.84,0,0,0,0.56
2013-8-29,77,72,68,69,68,65,98,87,73,30.04,29.95,0,0,0,0.00
2013-8-30,82,77,69,72,70,67,94,81,67,30.00,29.85,0,0,0,0.00
2013-8-31,84,79,74,76,74,71,93,85,75,29.86,29.79,0,0,0,0.01
2013-9-1,82,78,73,76,74,72,98,88,81,29.85,29.80,0,0,0,0.02
2013-9-2,80,75,70,76,72,69,97,93,82,29.80,29.71,0,0,0,0.08
2013-9-3,76,71,66,69,64,59,98,81,62,29.88,29.76,0,0,0,0.42
2013-9-4,79,70,56,62,60,55,97,72,49,30.00,29.93,0,0,0,0.00
2013-9-5,72,67,54,64,54,47,89,65,46,30.16,29.97,8,1,0,0.00
2013-9-6,69,64,52,50,46,43,87,56,44,30.27,30.17,2,0,0,0.00
2013-9-7,78,70,52,62,57,51,96,65,43,30.10,29.93,0,0,0,0.00
2013-9-8,76,71,59,66,58,49,85,64,47,30.07,29.82,7,1,0,0.00
2013-9-9,72,62,46,56,52,44,95,70,47,30.26,30.16,1,0,0,0.00
2013-9-10,81,72,63,75,69,61,95,90,81,30.17,30.05,0,0,0,0.14
2013-9-11,95,85,70,81,76,67,91,75,60,30.12,29.96,0,0,0,0.00
2013-9-12,86,74,68,77,70,64,90,85,72,29.93,29.70,1,0,0,0.36
2013-9-13,73,65,57,64,60,53,88,83,71,29.84,29.65,3,0,0,0.04
2013-9-14,64,60,53,53,51,49,86,73,67,30.11,29.98,2,0,0,0.02
2013-9-15,68,61,46,55,51,44,90,71,52,30.23,30.10,1,0,0,0.01
2013-9-16,67,63,57,57,54,53,87,75,64,30.19,30.07,6,0,0,0.01
2013-9-17,62,54,43,48,43,39,87,68,50,30.45,30.35,4,0,0,0.02
2013-9-18,70,58,44,52,47,41,89,71,46,30.36,30.19,0,0,0,0.00
2013-9-19,76,61,45,58,51,42,88,72,44,30.21,30.07,0,0,0,0.00
2013-9-20,79,68,52,63,58,48,86,70,49,30.12,30.00,0,0,0,0.00
2013-9-21,73,66,53,66,61,49,85,83,78,30.00,29.70,4,0,0,0.02
2013-9-22,66,60,52,55,51,44,83,71,58,29.92,29.70,11,0,0,0.63
2013-9-23,61,57,50,48,44,41,82,64,54,30.05,29.91,7,1,0,0.00
2013-9-24,69,60,43,53,47,39,85,65,44,30.05,29.88,5,0,0,0.00
2013-9-25,68,60,44,55,49,40,85,69,49,29.98,29.90,0,0,0,0.00
2013-9-26,67,62,52,56,53,48,84,74,64,30.12,30.03,1,0,0,0.00
2013-9-27,63,60,48,55,53,44,84,78,71,30.27,30.22,0,0,0,0.00
2013-9-28,72,62,49,57,52,44,84,73,54,30.35,30.26,3,0,0,0.00
2013-9-29,70,63,52,57,54,47,83,72,55,30.23,30.10,1,0,0,0.00
2013-9-30,72,60,47,57,51,42,83,73,56,30.11,29.98,1,0,0,0.01
2013-10-1,76,64,48,62,55,43,82,72,54,30.03,29.90,0,0,0,0.00
2013-10-2,79,72,55,65,62,48,80,69,61,29.99,29.92,1,0,0,0.01
2013-10-3,76,65,53,61,55,47,80,70,43,30.15,30.05,0,0,0,0.00
2013-10-4,80,71,58,70,63,50,80,76,70,30.07,29.98,0,0,0,0.07
2013-10-5,74,67,61,66,60,55,80,79,75,30.12,30.04,1,0,0,0.00
2013-10-6,64,63,62,56,54,53,75,73,71,30.13,30.07,1,0,0,0.02
2013-10-7,73,67,58,66,58,51,77,73,67,29.95,29.75,7,1,0,0.12
2013-10-8,63,57,47,48,45,40,81,64,51,30.34,30.21,8,1,0,0.00
2013-10-9,62,57,48,49,46,42,81,69,57,30.45,30.34,6,0,0,0.00
2013-10-10,60,56,50,53,50,44,80,79,77,30.29,30.15,1,0,0,0.00
2013-10-11,68,64,56,60,56,50,80,77,73,30.12,30.05,2,0,0,0.00
2013-10-12,71,64,54,57,53,46,79,67,44,30.33,30.19,4,1,0,0.00
2013-10-13,65,58,50,53,50,44,81,73,62,30.41,30.35,3,0,0,0.00
2013-10-14,64,55,44,53,46,37,79,72,56,30.39,30.26,0,0,0,0.00
2013-10-15,71,62,48,56,48,40,77,62,47,30.26,30.15,1,0,0,0.00
2013-10-16,64,60,51,56,52,44,78,76,73,30.10,29.96,0,0,0,0.00
2013-10-17,73,68,61,61,58,51,77,71,63,29.91,29.74,0,0,0,0.00
2013-10-18,65,60,51,50,46,44,78,63,49,29.96,29.76,7,1,0,0.00
2013-10-19,63,54,40,50,44,33,78,69,52,30.00,29.78,0,0,0,0.00
2013-10-20,59,54,45,42,40,38,77,58,46,30.07,29.92,9,1,0,0.00
2013-10-21,64,57,38,46,42,31,79,59,41,30.17,30.03,2,0,0,0.00
2013-10-22,63,56,41,52,46,34,78,71,63,29.87,29.74,1,0,0,0.00
2013-10-23,53,47,38,40,36,31,77,66,52,29.80,29.63,4,0,0,0.00
2013-10-24,52,45,38,34,31,30,80,59,44,29.99,29.85,7,0,0,0.00
2013-10-25,50,47,40,34,32,31,77,58,49,30.21,30.11,9,1,0,0.00
2013-10-26,54,46,30,36,31,25,80,58,42,30.20,29.93,10,1,0,0.00
2013-10-27,54,49,41,36,34,32,78,58,44,30.11,29.89,8,1,0,0.01
2013-10-28,59,54,37,39,36,30,79,53,41,30.32,30.18,5,1,0,0.00
2013-10-29,50,45,40,33,31,28,71,58,48,30.45,30.38,2,0,0,0.00
2013-10-30,55,48,37,48,40,31,80,76,69,30.33,30.20,0,0,0,0.00
2013-10-31,62,57,44,54,48,35,74,72,68,30.19,29.86,2,0,0,0.08
2013-11-1,69,64,58,58,54,50,77,70,58,29.67,29.54,4,1,0,0.12
2013-11-2,66,58,46,52,46,37,78,67,48,29.74,29.62,6,0,0,0.01
2013-11-3,44,41,34,35,30,20,77,66,57,30.45,30.00,11,4,0,0.00
2013-11-4,43,37,29,24,19,16,73,51,33,30.69,30.60,6,1,0,0.00
2013-11-5,53,47,37,40,38,28,79,69,60,30.69,30.52,4,0,0,0.00
2013-11-6,59,53,40,47,44,33,79,72,65,30.52,30.12,3,0,0,0.00
2013-11-7,61,53,42,54,44,29,79,72,55,29.92,29.75,11,2,0,0.01
2013-11-8,46,43,40,32,29,27,67,58,50,30.18,30.01,12,3,0,0.00
2013-11-9,48,44,38,33,30,28,70,58,49,30.29,30.03,4,0,0,0.00
2013-11-10,58,49,45,39,36,32,71,62,43,29.99,29.80,13,2,0,0.00
2013-11-11,51,48,42,34,31,29,60,52,45,30.19,29.98,5,1,0,0.00
2013-11-12,37,33,28,31,23,18,81,68,55,30.28,30.05,10,2,0,0.03
2013-11-13,36,32,24,20,16,13,75,55,39,30.38,30.29,12,2,0,0.00
2013-11-14,53,46,32,25,22,19,73,40,29,30.23,30.15,6,0,0,0.00
2013-11-15,58,46,31,31,26,23,82,51,26,30.26,30.17,2,0,0,0.00
2013-11-16,60,52,38,44,40,32,80,66,46,30.35,30.28,1,0,0,0.01
2013-11-17,59,56,46,48,45,37,70,66,63,30.23,29.89,4,0,0,0.00
2013-11-18,64,58,48,49,39,28,76,51,38,29.77,29.59,12,1,0,0.00
2013-11-19,48,41,33,31,27,23,67,57,47,30.34,29.77,13,5,0,0.00
2013-11-20,41,35,28,21,18,15,74,50,37,30.64,30.55,8,1,0,0.00
2013-11-21,49,40,22,36,30,17,82,68,52,30.66,30.44,4,0,0,0.00
2013-11-22,53,48,42,46,39,34,77,72,66,30.25,29.92,0,0,0,0.01
2013-11-23,43,39,32,29,24,15,78,56,45,30.05,29.91,11,3,0,0.00
2013-11-24,27,25,22,10,5,-1,56,43,30,30.33,30.11,15,7,0,0.00
2013-11-25,34,31,22,17,15,13,71,52,44,30.49,30.34,4,1,0,0.00
2013-11-26,39,35,32,30,24,16,79,65,53,30.35,29.99,1,0,0,0.01
2013-11-27,60,44,36,45,35,28,79,72,59,29.59,29.36,8,2,0,0.00
2013-11-28,32,29,25,18,15,12,73,57,46,30.47,30.03,7,2,0,0.00
2013-11-29,35,30,25,23,21,19,81,69,58,30.74,30.54,6,0,0,0.00
2013-11-30,33,30,20,23,17,11,77,61,42,30.80,30.48,4,0,0,0.00
2013-12-1,47,41,31,37,33,26,85,73,65,30.27,30.06,2,0,0,0.00
2013-12-2,44,37,31,37,30,24,78,76,74,30.01,29.91,2,0,0,0.00
2013-12-3,50,39,28,39,32,21,78,73,65,30.01,29.89,0,0,0,0.00
2013-12-4,51,41,29,39,33,22,78,73,63,30.18,30.09,1,0,0,0.00
2013-12-5,55,51,44,41,38,34,68,62,59,30.11,29.96,1,0,0,0.02
2013-12-6,46,41,35,35,33,28,78,73,64,30.16,29.98,6,1,0,0.37
2013-12-7,37,35,30,31,27,21,81,74,67,30.50,30.28,8,1,0,0.01
2013-12-8,30,28,22,23,21,17,82,74,69,30.62,30.44,2,0,0,0.00
2013-12-9,35,34,30,26,25,23,75,71,69,30.19,29.98,1,0,0,0.09
2013-12-10,34,30,26,29,24,21,82,78,73,30.05,29.87,1,0,0,0.03
2013-12-11,32,29,24,21,19,17,75,66,61,30.31,30.21,7,1,0,0.03
2013-12-12,24,21,16,11,9,8,77,61,50,30.36,30.18,7,1,0,0.00
2013-12-13,33,28,22,19,16,10,76,60,52,30.36,30.12,8,1,0,0.00
2013-12-14,22,18,16,17,14,12,83,82,81,30.55,30.07,7,1,0,0.00
2013-12-15,37,32,28,31,25,22,81,76,67,29.81,29.57,11,2,0,0.09
2013-12-16,27,24,15,13,11,9,78,59,49,30.23,30.02,10,3,0,0.00
2013-12-17,22,20,15,17,15,11,83,82,81,30.23,30.00,2,0,0,0.00
2013-12-18,34,29,17,25,21,13,84,72,62,30.17,30.03,8,1,0,0.03
2013-12-19,44,36,21,29,26,16,83,68,54,30.16,30.03,4,0,0,0.15
2013-12-20,48,40,30,35,32,24,82,73,59,30.12,29.98,1,0,0,0.22
2013-12-21,58,44,32,48,37,26,81,77,67,30.02,29.91,1,0,0,0.00
2013-12-22,67,64,61,59,56,52,77,75,66,29.97,29.77,8,1,0,0.00
2013-12-23,57,50,40,46,38,32,73,63,57,30.14,29.91,8,1,0,0.69
2013-12-24,36,32,26,26,23,20,81,72,60,30.31,30.11,8,2,0,0.00
2013-12-25,25,23,19,14,10,7,69,58,50,30.55,30.49,5,1,0,0.00
2013-12-26,33,29,24,27,24,19,81,80,77,30.34,30.17,2,0,0,0.00
2013-12-27,37,34,26,25,23,20,79,65,57,30.36,30.26,4,0,0,0.00
2013-12-28,52,40,28,30,27,23,81,62,43,30.22,30.07,2,0,0,0.00
2013-12-29,40,37,31,31,29,25,79,73,67,30.05,29.47,6,1,0,0.89
2013-12-30,40,32,21,34,22,12,79,66,56,30.21,29.90,9,2,0,0.00
2013-12-31,29,24,16,23,15,9,79,67,53,30.28,30.07,6,1,0,0.00
2014-1-1,30,26,19,20,16,9,73,63,55,30.43,30.27,7,0,0,0.00
2014-1-2,22,21,15,18,16,11,83,82,80,30.19,29.78,10,2,0,0.00